Regional Weather Roundup
Issued by NWS Tiyan, Guam

Home | Current Version | Previous Version | Text Only | Print | Product List | Glossary On
Versions: 1 2 3 4 5 6 7 8 9 10 11 12 13 14 15 16 17 18 19 20 21 22 23 24 25 26 27 28 29 30 31 32 33 34 35 36 37 38 39 40 41 42 43 44 45 46 47 48 49 50
000
ASGM40 PGUM 182312
RWRGUM
WEATHER ROUNDUP FOR THE MARIANAS
NATIONAL WEATHER SERVICE TIYAN GU
900 AM CHST SUN NOV 19 2017

GUZ001>004-190000-
MARIANA ISLANDS-

CITY           SKY/WX    TMP DP  RH WIND       PRES   REMARKS
GUAM AIRPORT   MOSUNNY   84  79  84 E13       29.90R HX  96
ANDERSEN AFB   CLOUDY    82  77  83 E9        29.91R HX  91
ROTA AIRPORT   MOSUNNY   82  75  78 E13       29.91R
TINIAN AP      MOSUNNY   84  77  79 E10       29.89R HX  94
SAIPAN AP      MOSUNNY   88  79  74 E14       29.90R HX 102

$$




USA.gov is the U.S. government's official web portal to all federal, state and local government web resources and services.